Location: Bacharowice
(49.9333°N, 19.5833°E)
Time: 07:40:12
(UTC+00:00)

Cosmos 1908 Rocket - Pass Details

Date: 01 October 2021
Orbit: 605 x 633 km, 82.5° (Epoch: 27 October)

Event Time Altitude Azimuth Distance (km) Brightness Sun altitude
Rises 16:45:24 0° 184° (S) 2,914 7.1 -4.9°
Reaches altitude 10° 16:47:38 10° 183° (S) 2,009 6.2 -5.3°
Maximum altitude 16:52:06 78° 97° (E) 649 3.6 -6.0°
Drops below altitude 10° 16:56:33 10° 12° (NNE) 2,013 6.1 -6.7°
Sets 16:58:48 0° 12° (NNE) 2,920 6.9 -7.1°
